FW1036 Weather Reports


time (UTC)temp
F
wind
direction
speed
knots
gust
knots
rain 1hr
in
rain 24hr
in
rain mn
in
humidity
%
barometer
mb
20240222111529 33 5 2.6 5.2 0.00 0.00 0.00 83 1007.7
20240222110028 32 5 2.6 4.3 0.00 0.00 0.00 83 1007.9
20240222104527 33 5 3.5 5.2 0.00 0.00 0.00 82 1008.0
20240222103030 32 5 2.6 3.5 0.00 0.00 0.00 83 1007.9
20240222101533 33 5 3.5 5.2 0.00 0.00 0.00 81 1007.9
20240222100019 35 5 3.5 7.0 0.00 0.00 0.00 80 1008.0
20240222094517 36 20 5.2 7.8 0.00 0.00 0.00 83 1007.9
20240222093024 36 298 1.7 3.5 0.00 0.00 0.00 83 1007.9
20240222091509 37 298 0.0 0.0 0.00 0.00 0.00 82 1008.1
20240222090012 38 298 0.0 0.0 0.00 0.00 0.00 82 1007.9
20240222084504 38 298 0.0 1.7 0.00 0.00 0.00 82 1007.8
20240222083009 38 298 0.0 3.5 0.00 0.00 0.00 81 1007.8
20240222081612 39 227 0.0 0.0 0.00 0.00 0.00 81 1008.0
20240222080059 39 227 0.0 1.7 0.00 0.00 0.00 80 1008.2
20240222074557 39 227 0.0 1.7 0.00 0.00 0.00 80 1008.3
20240222073055 39 227 0.0 2.6 0.00 0.00 0.00 78 1008.6
20240222071553 40 199 0.0 0.0 0.00 0.00 0.00 78 1008.7
20240222070051 39 199 0.0 0.0 0.00 0.00 0.00 79 1008.6
20240222064554 39 199 0.0 2.6 0.00 0.00 0.00 79 1008.6
20240222063048 38 199 0.0 0.0 0.00 0.00 0.00 79 1008.7
20240222061545 39 199 0.0 0.0 0.00 0.00 0.00 77 1008.8
20240222060058 40 199 0.9 2.6 0.00 0.00 0.00 76 1008.7
20240222054540 41 199 0.9 2.6 0.00 0.00 0.00 75 1008.7
20240222053036 42 199 0.9 2.6 0.00 0.00 0.00 74 1008.7
20240222051536 42 232 0.9 3.5 0.00 0.00 0.00 73 1008.8
20240222050029 44 208 0.9 3.5 0.00 0.00 0.00 72 1009.0
20240222044529 44 209 0.9 5.2 0.00 0.00 0.00 71 1009.1
20240222043028 44 209 1.7 4.3 0.00 0.00 0.00 71 1009.3
20240222041527 44 242 1.7 4.3 0.00 0.00 0.00 71 1009.3
20240222040027 44 223 2.6 4.3 0.00 0.00 0.00 71 1009.3
20240222034530 45 233 1.7 6.1 0.00 0.00 0.00 69 1009.4
20240222033027 47 223 2.6 8.7 0.00 0.00 0.00 65 1009.1
20240222031539 48 217 2.6 10.4 0.00 0.00 0.00 65 1008.9
20240222030025 48 196 4.3 9.6 0.00 0.00 0.00 65 1009.0
20240222024522 47 184 3.5 9.6 0.00 0.00 0.00 65 1009.2
20240222023022 47 175 5.2 13.0 0.00 0.00 0.00 65 1009.2
20240222021521 47 175 7.8 13.0 0.00 0.00 0.00 64 1009.1
20240222020021 48 172 6.1 11.3 0.00 0.00 0.00 64 1009.2
20240222014520 48 190 6.1 13.0 0.00 0.00 0.00 64 1009.4
20240222013018 48 182 5.2 15.6 0.00 0.00 0.00 64 1009.3
20240222011518 48 195 8.7 16.5 0.00 0.00 0.00 63 1009.6
20240222010018 47 185 7.8 16.5 0.00 0.00 0.00 63 1009.9
20240222004515 47 180 7.8 13.0 0.00 0.00 0.00 63 1009.8
20240222003014 47 178 4.3 11.3 0.00 0.00 0.00 64 1010.0
20240222001513 47 182 6.1 14.8 0.00 0.00 0.00 63 1010.1
20240222000020 47 179 6.1 9.6 0.00 0.00 0.00 63 1010.2
20240221234512 47 169 6.1 11.3 0.00 0.00 0.00 63 1010.1
20240221233013 48 154 6.1 10.4 0.00 0.00 0.00 62 1010.1
20240221231508 48 180 7.0 10.4 0.00 0.00 0.00 62 1010.2
20240221230013 48 198 4.3 7.8 0.00 0.00 0.00 62 1010.3
20240221224505 48 169 5.2 8.7 0.00 0.00 0.00 61 1010.4
20240221223010 49 172 6.1 11.3 0.00 0.00 0.00 60 1010.5
20240221221502 50 174 7.8 12.2 0.00 0.00 0.00 59 1010.7
20240221220001 50 171 4.3 10.4 0.00 0.00 0.00 60 1010.7
20240221214606 51 166 5.2 9.6 0.00 0.00 0.00 59 1011.0
20240221213102 52 161 7.0 12.2 0.00 0.00 0.00 59 1011.0
20240221211604 52 170 7.0 14.8 0.00 0.00 0.00 59 1011.1
20240221210056 52 148 5.2 8.7 0.00 0.00 0.00 59 1011.4
20240221204553 51 174 3.5 12.2 0.00 0.00 0.00 59 1011.8
20240221203051 51 185 4.3 8.7 0.00 0.00 0.00 58 1011.9
20240221201550 51 182 2.6 8.7 0.00 0.00 0.00 58 1012.1
20240221200054 52 195 4.3 9.6 0.00 0.00 0.00 56 1012.3
20240221194548 52 196 1.7 14.8 0.00 0.00 0.00 56 1012.4
20240221193054 53 211 6.1 13.0 0.00 0.00 0.00 55 1012.4
20240221191544 52 183 3.5 16.5 0.00 0.00 0.00 56 1012.6
20240221190045 53 180 7.0 12.2 0.00 0.00 0.00 55 1012.8
20240221184539 52 167 5.2 13.9 0.00 0.00 0.00 57 1013.1
20240221183045 52 215 8.7 15.6 0.00 0.00 0.00 54 1013.5
20240221181540 50 183 3.5 14.8 0.00 0.00 0.00 57 1014.0
20240221180029 49 182 8.7 12.2 0.00 0.00 0.00 59 1014.5
20240221174526 47 187 3.5 9.6 0.00 0.00 0.00 59 1015.0
20240221173023 47 203 4.3 9.6 0.00 0.00 0.00 59 1015.5
20240221171523 48 238 3.5 10.4 0.00 0.00 0.00 57 1015.5
20240221170034 49 234 5.2 9.6 0.00 0.00 0.00 57 1015.6
20240221164519 48 181 5.2 11.3 0.00 0.00 0.00 58 1015.8
20240221163015 47 216 4.3 15.6 0.00 0.00 0.00 57 1016.0
20240221161536 46 213 5.2 12.2 0.00 0.00 0.00 59 1016.0
20240221160007 45 179 4.3 11.3 0.00 0.00 0.00 60 1016.4
20240221154505 44 171 4.3 7.8 0.00 0.00 0.00 61 1016.6
20240221153104 42 182 2.6 10.4 0.00 0.00 0.00 63 1016.9
20240221151601 41 190 2.6 9.6 0.00 0.00 0.00 65 1017.2
20240221150103 41 190 3.5 8.7 0.00 0.00 0.00 65 1017.3
20240221144606 39 190 3.5 9.6 0.00 0.00 0.00 68 1017.5
20240221143046 38 193 1.7 10.4 0.00 0.00 0.00 69 1017.7
20240221141543 38 196 2.6 9.6 0.00 0.00 0.00 70 1017.7
20240221140040 37 225 2.6 8.7 0.00 0.00 0.00 70 1018.0
20240221134536 36 233 3.5 7.0 0.00 0.00 0.00 71 1017.8
20240221133032 36 210 2.6 7.0 0.00 0.00 0.00 71 1017.9
20240221131528 35 205 2.6 8.7 0.00 0.00 0.00 72 1018.0
20240221130032 35 177 3.5 9.6 0.00 0.00 0.00 73 1018.1
20240221124521 34 159 3.5 8.7 0.00 0.00 0.00 75 1018.2
20240221123037 33 177 4.3 9.6 0.00 0.00 0.00 75 1018.2
20240221121518 33 196 5.2 10.4 0.00 0.00 0.00 76 1018.3
20240221120014 33 161 5.2 13.0 0.00 0.00 0.00 76 1018.5
20240221114516 33 213 5.2 10.4 0.00 0.00 0.00 75 1018.7
20240221113011 33 186 4.3 13.0 0.00 0.00 0.00 74 1018.7